Flag for Canada Weather past 2 weeks in Yellowknife, Northwest Territories, Canada

Now
73 °F

Scattered clouds.


Feels Like: 76 °F
Forecast: 53 / 75 °F
Wind: 6 mph from Southwest

Location: Yellowknife

Current Time: Aug 3, 2015 at 6:31:55 PM

Latest Report: Aug 3, 2015 at 6:00 PM


Visibility: 12 mi

Pressure: 30.05 "Hg

Humidity: 29%

Dew point: 39 °F

Location of YellowknifeLocation

Historic Weather in Yellowknife — Graph

°F

Yellowknife temperature yesterday

Maximum temperature yesterday: 72 °F (at 1:00 PM)
Minimum temperature yesterday: 50 °F (at 4:00 AM)
Average temperature yesterday: 63 °F

Past Weeks' High & Low Weather Summary

 TemperatureHumidityPressure
High75 °F (Aug 3, 2:00 PM)100% (Aug 2, 3:00 AM)30.07 "Hg (Aug 2, 3:00 AM)
Low50 °F (Jul 24, 4:00 AM)27% (Aug 3, 2:00 PM)29.65 "Hg (Jul 22, 5:00 PM)
Average63 °F59%29.84 "Hg
* Reported Jul 19 5:00 PM — Aug 3 5:00 PM, Yellowknife, Weather by CustomWeather, © 2015

Note: Actual official high and low records may vary slightly from our data, if they occured in-between our weather recording intervals... More about our weather records

Advertising

Yellowknife weather history for previous 24 hours

 ConditionsComfort  
Time TempWeatherWind HumidityBarometerVisibility
5:00 PM
Mon, Aug 3
73 °FPassing clouds.9 mph29%30.05 "Hg10 mi
4:00 PM73 °FPassing clouds.8 mph29%30.06 "Hg10 mi
3:00 PM73 °FPassing clouds.6 mph29%30.06 "Hg12 mi
2:00 PM75 °FPassing clouds.3 mph27%30.06 "Hg15 mi
1:00 PM72 °FScattered clouds.6 mph31%30.07 "Hg15 mi
12:00 PM72 °FScattered clouds.9 mph33%30.07 "Hg15 mi
11:00 AM70 °FPartly sunny.6 mph33%30.07 "Hg10 mi
10:00 AM68 °FPartly sunny.6 mph38%30.07 "Hg10 mi
9:00 AM66 °FPartly sunny.7 mph46%30.06 "Hg5 mi
8:00 AM59 °FPartly sunny.5 mph63%30.06 "Hg5 mi
7:00 AM57 °FScattered clouds.5 mph67%30.05 "Hg5 mi
6:00 AM57 °FPassing clouds.7 mph63%30.05 "Hg15 mi
5:00 AM59 °FPartly cloudy.6 mph59%30.04 "Hg15 mi
4:00 AM59 °FPartly cloudy.5 mph59%30.03 "Hg15 mi
3:00 AM57 °FPartly cloudy.3 mph59%30.03 "Hg15 mi
2:00 AM55 °FPassing clouds.3 mph63%30.03 "Hg15 mi
1:00 AM57 °FPassing clouds.2 mph55%30.03 "Hg15 mi
12:00 AM57 °FPassing clouds.2 mph77%30.02 "Hg15 mi
11:00 PM
Sun, Aug 2
57 °FBroken clouds.2 mph44%30.02 "Hg15 mi
10:00 PM59 °FMore clouds than sun.No wind45%30.01 "Hg15 mi
9:00 PM61 °FBroken clouds.2 mph42%30.01 "Hg15 mi
8:00 PM68 °FPartly sunny.5 mph28%30.01 "Hg15 mi
7:00 PM70 °FBroken clouds.8 mph31%30.01 "Hg15 mi
6:00 PM70 °FPartly sunny.8 mph38%30.01 "Hg15 mi
Weather by CustomWeather, © 2015

See weather overviewHow to use our weather pages